Location: Bonham
(33.5773°N, 96.1783°W)
Time: 22:26:03
(UTC+00:00)

Cosmos 1932 - Visible Passes

Search period start: 18 November 2025 00:00
Search period end: 28 November 2025 00:00
Orbit: 921 x 1007 km, 65.0° (Epoch: 18 November)

Date Brightness Start Highest point End Pass type
(mag) Time Alt. Az. Time Alt. Az. Time Alt. Az.
18 Nov 4.4 00:40:14 10° SSW 00:46:31 85° ESE 00:51:52 16° NNE visible
18 Nov 6.7 02:30:54 10° W 02:34:51 17° NW 02:36:19 16° NNW visible
18 Nov 5.5 10:00:32 43° ESE 10:00:32 43° ESE 10:04:55 10° SE visible
18 Nov 5.8 11:45:01 19° W 11:45:26 19° WSW 11:49:49 10° SSW visible
19 Nov 5.2 01:02:40 10° SW 01:08:48 52° WNW 01:14:09 14° NNE visible
19 Nov 5.4 10:23:22 38° S 10:23:22 38° S 10:27:10 10° SSE visible
19 Nov 4.9 23:37:43 10° S 23:43:38 45° ESE 23:49:42 10° NE visible
20 Nov 6.1 01:25:55 10° WSW 01:31:19 29° NW 01:36:19 12° N visible
20 Nov 6.0 10:46:11 22° SSW 10:46:11 22° SSW 10:48:37 10° S visible
20 Nov 4.5 23:59:25 10° SSW 00:05:43 87° ESE 00:12:12 10° NNE visible
21 Nov 6.8 01:50:12 10° W 01:54:04 16° NW 01:58:01 10° N visible
22 Nov 5.3 00:21:54 10° SW 00:28:00 51° WNW 00:34:17 10° NNE visible
23 Nov 6.2 00:45:10 10° WSW 00:50:32 28° NW 00:55:59 10° N visible
24 Nov 6.8 01:09:30 10° W 01:13:18 16° NW 01:17:09 10° N visible
24 Nov 5.4 23:41:07 10° SW 23:47:12 49° WNW 23:53:28 10° NNE visible
26 Nov 6.3 00:04:25 10° WSW 00:09:43 27° NW 00:15:10 10° N visible
27 Nov 6.8 00:28:47 10° W 00:32:31 16° NW 00:36:17 10° N visible
